STARLINK-5420, 54798

Orbit data source: Space-Track

STARLINK-5420, 54798 is a payload satellite owned by SpaceX/Seattle (US) in LEO that was launched on Sat, 17 Dec 2022 UTC via an FALCON 9 launch vehicle from the Air Force Eastern Test Range (AFETR). Payload-class satellites include a variety of spacecraft equipped with specific instruments for various scientific and technological missions. These include communications satellites like Starlink; space stations such as the ISS; scientific satellites like the Hubble; Earth observation satellites from companies like Planet Labs, Umbra, and HawkEye 360; GPS; miniature CubeSats for education and research; and military/defense satellites.

Loading next visibility...
Identifier
54798, 2022-175AS
Orbit
LEO
Country
Flag of USUS
Related business
Manufacturer
SpaceX/Seattle
Mission
Operational Commercial Communications
Bus & Motor
STARLINK, Unknown motor
Mass
305 kg wet, ~290 kg dry
Launch date (UTC)
2022-12-17 (4 years ago)
Launch vehicle
FALCON 9
Launch site
Air Force Eastern Test Range (AFETR)
Object type
Payload
Rocket body
Debris
Shape & HBR
Box + 1 Pan, 10.1 m
Radar Cross Section
13.562 m², Large (>1 m²)

Expand to show TLE details & history
Last TLE update: 3 days ago

TLE from 3 days ago
0 STARLINK-5420
1 54798U 22175AS  26170.56796628  .00000046  00000-0  21006-4 0  9998
2 54798  53.1602 281.4249 0001142  84.1405 275.9716 15.08837480195659
Epoch: 2026-06-19T13:37Z
TLE epoch observation values (Epoch: 2026-06-19T13:37:52.286Z)
Latitude
-0.00007°
Longitude
169.16191°
Altitude
540.56 km
Speed
7.593 km/s
True Right ascension
18h 45m 41s
True Declination
0° 00' 00"
Sunlit
Object was in full shadow at epoch
Visualization orbit readout
Latitude
Unknown
Longitude
Unknown
Altitude
Unknown
Speed
Unknown
Apparent Right ascension
Unknown
Apparent Declination
Unknown
Sunlit
N/A
Visualization observer readout
Local Sidereal Time
21:32:21
Azimuth
Unknown
Elevation
Unknown
Doppler factor
Unknown
Orbital elements
Apogee altitude
540.795 km
Perigee altitude
539.215 km
Semi-major axis
6,918.142 km
Eccentricity
0.00011
Inclination
53.1602°
RAAN
281.4249°
Arg. of periapsis
84.1405°
True anomaly
275.95858°
Mean anomaly
275.9716°
Eccentric anomaly
275.96509°
Mean motion
3.77189 °/min
Orbital period
95.44 mins
BSTAR
0.000021006
Loading maneuver chart data...
Computing Atmospheric mass density...
Loading historical data...
Loading historical data...
Loading historical data...
Loading historical data...
Loading historical data...
Loading historical data...
Loading historical data...

Documentation

Showing up to 5 results
|